TimeEST,TemperatureF,Dew PointF,Humidity,Sea Level PressureIn,VisibilityMPH,Wind Direction,Wind SpeedMPH,Gust SpeedMPH,PrecipitationIn,Events,Conditions,WindDirDegrees,DateUTC
12:15 AM,35.6,26.6,70,30.19,10.0,SSW,13.8,-,N/A,,Overcast,200,2012-12-06 05:15:00
12:35 AM,35.6,26.6,70,30.19,10.0,SSW,15.0,19.6,N/A,,Overcast,200,2012-12-06 05:35:00
12:55 AM,35.6,26.6,70,30.18,10.0,South,15.0,19.6,N/A,,Overcast,190,2012-12-06 05:55:00
1:15 AM,35.6,26.6,70,30.18,10.0,SSW,10.4,18.4,N/A,,Overcast,210,2012-12-06 06:15:00
1:35 AM,35.6,26.6,70,30.17,10.0,SSW,13.8,-,N/A,,Overcast,210,2012-12-06 06:35:00
1:55 AM,35.6,26.6,70,30.17,10.0,SSW,8.1,-,N/A,,Mostly Cloudy,210,2012-12-06 06:55:00
2:15 AM,35.6,26.6,70,30.15,10.0,SSW,11.5,-,N/A,,Mostly Cloudy,210,2012-12-06 07:15:00
2:35 AM,35.6,28.4,75,30.14,10.0,SSW,13.8,19.6,N/A,,Overcast,200,2012-12-06 07:35:00
2:55 AM,35.6,28.4,75,30.14,10.0,SSW,16.1,21.9,N/A,,Overcast,200,2012-12-06 07:55:00
3:15 AM,37.4,28.4,70,30.13,10.0,SSW,16.1,25.3,N/A,,Overcast,200,2012-12-06 08:15:00
3:35 AM,37.4,28.4,70,30.11,10.0,South,16.1,21.9,N/A,,Overcast,190,2012-12-06 08:35:00
3:55 AM,37.4,30.2,75,30.11,10.0,South,16.1,21.9,N/A,,Overcast,190,2012-12-06 08:55:00
4:15 AM,37.4,30.2,75,30.09,10.0,South,16.1,20.7,N/A,,Overcast,180,2012-12-06 09:15:00
4:35 AM,37.4,30.2,75,30.09,10.0,SSW,12.7,21.9,N/A,,Overcast,200,2012-12-06 09:35:00
4:55 AM,37.4,30.2,75,30.08,10.0,SSW,13.8,21.9,N/A,,Overcast,200,2012-12-06 09:55:00
5:15 AM,37.4,30.2,75,30.07,10.0,SSW,11.5,23.0,N/A,,Overcast,200,2012-12-06 10:15:00
5:35 AM,39.2,30.2,70,30.06,10.0,South,11.5,21.9,N/A,,Overcast,190,2012-12-06 10:35:00
5:55 AM,39.2,30.2,70,30.04,10.0,South,16.1,23.0,N/A,,Overcast,180,2012-12-06 10:55:00
6:15 AM,39.2,32.0,75,30.02,10.0,South,17.3,23.0,N/A,,Overcast,180,2012-12-06 11:15:00
6:35 AM,39.2,32.0,75,30.02,10.0,South,18.4,26.5,N/A,,Overcast,180,2012-12-06 11:35:00
6:55 AM,39.2,33.8,81,30.02,10.0,South,16.1,21.9,N/A,,Overcast,180,2012-12-06 11:55:00
7:15 AM,39.2,33.8,81,30.01,10.0,South,16.1,25.3,N/A,,Overcast,180,2012-12-06 12:15:00
7:35 AM,39.2,33.8,81,30.00,10.0,South,17.3,23.0,N/A,,Overcast,180,2012-12-06 12:35:00
7:55 AM,39.2,33.8,81,30.00,7.0,South,15.0,23.0,N/A,,Overcast,190,2012-12-06 12:55:00
8:15 AM,39.2,33.8,81,29.99,10.0,South,15.0,25.3,N/A,,Overcast,190,2012-12-06 13:15:00
8:35 AM,39.2,33.8,81,29.98,10.0,South,17.3,20.7,N/A,,Overcast,190,2012-12-06 13:35:00
8:55 AM,39.2,33.8,81,29.97,10.0,South,18.4,25.3,N/A,,Mostly Cloudy,190,2012-12-06 13:55:00
9:15 AM,39.2,33.8,81,29.95,8.0,South,17.3,32.2,N/A,,Overcast,180,2012-12-06 14:15:00
9:35 AM,39.2,33.8,81,29.93,7.0,South,17.3,26.5,N/A,,Overcast,180,2012-12-06 14:35:00
9:55 AM,39.2,33.8,81,29.91,9.0,South,21.9,29.9,N/A,,Overcast,180,2012-12-06 14:55:00
10:15 AM,39.2,33.8,81,29.92,9.0,South,15.0,27.6,N/A,,Overcast,190,2012-12-06 15:15:00
10:35 AM,39.2,33.8,81,29.92,7.0,South,17.3,28.8,N/A,,Overcast,190,2012-12-06 15:35:00
10:55 AM,39.2,33.8,81,29.90,7.0,South,18.4,32.2,N/A,,Overcast,180,2012-12-06 15:55:00
11:15 AM,39.2,35.6,87,29.90,10.0,South,16.1,27.6,N/A,,Overcast,180,2012-12-06 16:15:00
11:35 AM,39.2,35.6,87,29.90,10.0,South,15.0,21.9,N/A,,Overcast,190,2012-12-06 16:35:00
11:55 AM,39.2,35.6,87,29.90,10.0,SSW,16.1,21.9,N/A,,Overcast,210,2012-12-06 16:55:00
12:15 PM,39.2,35.6,87,29.88,10.0,SSW,19.6,26.5,N/A,,Overcast,210,2012-12-06 17:15:00
12:35 PM,39.2,35.6,87,29.86,8.0,SSW,19.6,26.5,N/A,,Overcast,200,2012-12-06 17:35:00
12:55 PM,39.2,35.6,87,29.84,7.0,SSW,18.4,25.3,N/A,,Overcast,200,2012-12-06 17:55:00
1:15 PM,39.2,35.6,87,29.83,10.0,SSW,16.1,28.8,N/A,,Overcast,200,2012-12-06 18:15:00
1:35 PM,39.2,35.6,87,29.83,9.0,SSW,18.4,24.2,N/A,,Overcast,210,2012-12-06 18:35:00
1:55 PM,39.2,33.8,81,29.82,10.0,SSW,16.1,24.2,N/A,,Overcast,200,2012-12-06 18:55:00
2:15 PM,39.2,32.0,75,29.81,10.0,SW,13.8,23.0,N/A,,Overcast,220,2012-12-06 19:15:00
2:35 PM,39.2,32.0,75,29.81,10.0,SSW,16.1,20.7,N/A,,Overcast,210,2012-12-06 19:35:00
2:55 PM,39.2,32.0,75,29.80,10.0,SSW,11.5,24.2,N/A,,Overcast,210,2012-12-06 19:55:00
3:15 PM,39.2,30.2,70,29.80,10.0,SSW,13.8,19.6,N/A,,Overcast,200,2012-12-06 20:15:00
3:35 PM,39.2,30.2,70,29.80,10.0,SSW,12.7,17.3,N/A,,Overcast,200,2012-12-06 20:35:00
3:55 PM,39.2,30.2,70,29.80,10.0,SSW,12.7,18.4,N/A,,Overcast,200,2012-12-06 20:55:00
4:15 PM,39.2,30.2,70,29.80,10.0,SSW,11.5,16.1,N/A,,Overcast,200,2012-12-06 21:15:00
4:35 PM,39.2,32.0,75,29.80,10.0,SSW,12.7,19.6,N/A,,Overcast,210,2012-12-06 21:35:00
4:55 PM,39.2,32.0,75,29.79,10.0,SSW,13.8,19.6,N/A,,Overcast,200,2012-12-06 21:55:00
5:15 PM,39.2,33.8,81,29.79,10.0,SSW,11.5,17.3,N/A,,Overcast,210,2012-12-06 22:15:00
5:35 PM,39.2,33.8,81,29.79,10.0,SSW,13.8,19.6,N/A,,Overcast,210,2012-12-06 22:35:00
5:55 PM,39.2,33.8,81,29.80,10.0,SSW,10.4,17.3,N/A,,Overcast,210,2012-12-06 22:55:00
6:15 PM,39.2,32.0,75,29.80,10.0,SSW,12.7,21.9,N/A,,Overcast,200,2012-12-06 23:15:00
6:35 PM,39.2,32.0,75,29.80,10.0,SSW,11.5,-,N/A,,Overcast,210,2012-12-06 23:35:00
6:55 PM,39.2,32.0,75,29.80,10.0,SSW,8.1,-,N/A,,Overcast,210,2012-12-06 23:55:00
7:15 PM,39.2,32.0,75,29.81,10.0,SSW,5.8,-,N/A,,Overcast,210,2012-12-07 00:15:00
7:35 PM,39.2,32.0,75,29.80,10.0,SSW,8.1,-,N/A,,Overcast,200,2012-12-07 00:35:00
7:55 PM,39.2,30.2,70,29.80,10.0,SSW,8.1,-,N/A,,Overcast,210,2012-12-07 00:55:00
8:15 PM,39.2,30.2,70,29.81,10.0,SSW,6.9,-,N/A,,Overcast,200,2012-12-07 01:15:00
8:35 PM,39.2,32.0,75,29.81,10.0,SSW,6.9,-,N/A,,Overcast,210,2012-12-07 01:35:00
8:55 PM,39.2,32.0,75,29.80,10.0,SSW,10.4,-,N/A,,Overcast,210,2012-12-07 01:55:00
9:35 PM,39.2,32.0,75,29.81,10.0,WSW,8.1,-,N/A,,Overcast,240,2012-12-07 02:35:00
9:55 PM,39.2,30.2,70,29.81,10.0,WSW,8.1,-,N/A,,Overcast,240,2012-12-07 02:55:00
10:15 PM,39.2,32.0,75,29.82,10.0,WSW,9.2,-,N/A,,Overcast,250,2012-12-07 03:15:00
10:35 PM,39.2,32.0,75,29.82,10.0,West,6.9,-,N/A,,Overcast,270,2012-12-07 03:35:00
10:55 PM,39.2,32.0,75,29.83,10.0,West,4.6,-,N/A,,Overcast,280,2012-12-07 03:55:00
11:15 PM,37.4,32.0,81,29.84,10.0,West,5.8,-,N/A,,Overcast,280,2012-12-07 04:15:00
11:35 PM,37.4,30.2,75,29.83,10.0,WSW,3.5,-,N/A,,Overcast,250,2012-12-07 04:35:00
11:55 PM,37.4,30.2,75,29.84,10.0,West,4.6,-,N/A,,Overcast,260,2012-12-07 04:55:00